GFSCGP_prec_cloud_021.txt.gz
Cloud_Cover
99 0 98 100 79 7 87 61 100 100 100 100 100 100 100 100 100 100 60 1 4 1 0 0 0 0 0 0 0 0 0 0 0 0 20 84 100 100 20 90 5 5 73 97
87 45 100 86 5 5 25 100 100 100 100 100 100 100 100 100 100 100 72 0 1 0 0 0 0 0 0 0 0 0 0 0 0 0 5 32 95 17 97 100 100 37 42 98
68 100 100 35 86 93 100 100 100 100 100 100 100 100 100 100 100 100 1 26 5 0 0 0 0 0 0 0 0 0 0 0 0 0 0 6 5 99 75 97 100 10 59 100
97 100 100 100 99 100 100 100 100 100 100 100 98 100 100 100 61 26 59 100 8 0 0 0 0 0 0 0 0 0 0 0 16 0 2 5 100 33 81 94 7 15 96 86
100 100 100 88 100 100 100 100 100 100 100 100 100 100 8 66 94 2 46 3 0 0 0 0 0 0 0 0 0 0 0 0 0 0 4 14 100 100 97 100 36 7 30 53
100 100 99 100 100 100 100 100 100 100 100 100 100 100 78 4 4 17 0 0 0 0 0 0 0 0 0 0 0 0 0 0 0 89 0 19 94 100 58 99 100 91 19 57
100 100 100 100 100 100 100 100 100 100 100 99 37 20 60 2 40 81 3 2 0 0 0 0 0 0 0 0 0 0 0 0 34 19 0 39 100 100 100 30 86 100 84 63
100 100 100 100 100 100 100 100 100 100 98 7 0 6 5 58 81 7 4 11 3 0 0 0 0 0 0 0 0 0 0 0 26 1 0 18 100 100 100 50 24 100 80 67
87 97 100 100 100 100 94 74 74 5 68 66 11 13 5 68 6 73 4 100 12 0 0 0 0 1 0 0 0 0 0 0 0 0 0 70 100 100 97 91 98 44 90 90
0 0 3 15 11 5 27 79 54 5 45 5 0 3 5 75 5 5 2 2 0 0 0 0 4 42 4 0 0 0 0 0 0 0 1 4 100 100 100 56 100 87 23 95
0 0 0 0 0 2 5 0 84 59 43 0 0 0 0 19 39 6 4 0 0 0 1 0 5 86 4 0 0 0 0 0 0 0 0 46 100 100 100 100 100 100 79 100
0 0 0 0 0 0 0 0 10 56 7 0 0 1 0 13 15 7 58 0 0 0 0 0 3 4 0 0 0 0 0 0 0 0 1 48 100 100 100 100 100 100 86 100
1 0 0 0 0 3 1 1 2 100 70 0 0 0 93 16 8 29 5 4 0 0 0 0 0 0 0 0 0 0 0 0 0 0 0 94 64 77 100 100 96 84 100 100
6 0 0 0 11 47 32 3 5 15 5 2 2 1 79 78 5 6 49 0 0 0 0 0 0 6 0 0 0 0 0 0 0 0 5 39 5 100 100 100 93 84 88 95
68 13 0 0 0 0 0 0 0 0 0 1 0 1 5 32 72 20 5 5 5 0 0 0 0 5 0 0 0 0 0 0 0 0 1 46 5 96 100 100 100 39 96 48
5 5 0 0 0 0 4 4 0 0 0 0 0 0 46 14 45 7 6 40 5 0 0 0 0 0 0 0 0 0 0 0 0 0 0 12 1 11 100 100 100 100 100 79
5 6 13 0 0 0 16 79 11 3 0 0 1 91 9 95 94 18 21 61 5 0 0 0 0 0 0 4 1 0 0 0 0 0 0 2 27 7 14 100 100 100 100 100
5 4 5 9 1 1 0 4 5 4 2 0 2 43 94 8 69 83 20 5 6 0 0 0 0 0 0 0 4 0 0 0 0 0 0 0 4 16 8 76 81 100 100 100
5 5 5 3 2 0 4 1 5 3 9 2 5 51 100 19 86 74 92 5 73 5 0 0 0 0 0 0 0 4 2 0 0 0 0 0 5 7 4 6 5 10 100 100
10 6 39 6 2 0 4 5 2 9 6 5 4 18 100 33 5 5 5 10 81 5 0 0 0 0 0 0 0 0 19 12 0 0 0 0 0 34 37 52 0 6 55 88
100 100 8 57 12 4 100 10 81 37 42 5 7 15 52 92 5 5 2 21 98 23 2 0 0 0 0 0 0 0 0 5 0 0 0 0 0 0 0 1 5 8 5 5
86 100 100 22 97 27 55 100 6 34 6 1 5 2 6 96 5 4 2 92 94 100 5 0 0 0 0 0 0 0 0 5 3 0 0 0 0 0 0 0 0 0 0 3
96 100 98 32 86 29 100 100 92 1 0 21 0 4 1 19 4 1 5 42 100 100 11 2 0 0 0 0 0 0 0 0 0 0 0 0 0 0 0 0 0 0 0 0
100 94 5 27 79 100 100 100 96 94 4 10 5 5 4 78 5 0 0 5 28 100 10 5 0 0 0 0 0 0 0 0 1 0 0 0 0 0 0 0 0 0 0 0
100 100 100 96 67 100 100 100 100 100 86 5 2 0 4 80 7 0 0 5 89 51 5 5 2 0 1 0 0 0 0 0 0 3 0 0 0 0 0 0 0 0 0 0
100 98 38 99 92 96 100 100 10 99 43 4 3 3 5 8 5 5 5 5 64 86 5 5 5 0 0 0 0 0 0 0 0 0 0 0 0 0 0 0 0 5 0 0

GFSCGP_prec_cloud_024.txt.gz
Cloud_Cover
90 0 91 100 11 63 6 2 86 55 5 5 13 71 100 100 100 100 100 100 100 100 100 10 0 0 1 1 0 0 0 0 0 0 0 14 13 100 62 95 73 80 5 52
41 13 100 89 11 5 2 6 100 100 78 9 97 100 100 100 100 100 100 100 100 97 10 1 2 0 5 3 0 0 0 0 0 0 0 4 5 85 5 5 25 16 50 28
94 99 100 2 3 0 47 96 100 100 17 86 100 100 100 100 100 100 100 100 100 20 0 5 2 0 0 0 1 0 0 0 0 0 0 3 13 6 5 70 5 10 32 5
76 100 100 83 47 100 100 100 100 100 5 100 100 100 100 100 100 100 100 100 67 53 0 5 3 0 0 1 0 0 0 0 0 0 0 3 10 63 14 80 96 99 77 5
41 100 100 98 100 90 100 66 73 11 72 100 100 100 47 100 100 100 100 100 5 0 0 0 0 0 0 0 0 0 0 0 0 0 1 4 15 73 94 11 38 100 100 5
4 98 81 42 47 2 100 33 100 100 100 100 91 100 81 100 100 100 100 12 0 5 2 0 0 0 0 0 0 0 0 0 0 0 4 0 100 99 54 76 99 41 97 20
58 49 100 100 100 100 100 100 100 99 96 100 63 100 100 100 100 100 35 5 32 98 1 0 0 0 0 0 0 0 0 0 0 0 1 18 100 100 81 99 64 98 78 46
100 100 100 100 100 100 100 100 89 72 100 100 100 100 93 100 80 5 34 2 100 98 10 0 0 0 2 0 0 0 0 0 0 0 0 88 79 100 97 100 99 92 48 38
100 100 100 100 100 100 100 100 96 73 57 74 68 100 100 47 13 8 2 12 100 100 0 0 0 5 33 0 0 0 0 0 0 0 0 75 100 44 64 98 75 24 8 26
17 96 100 100 100 93 89 72 5 18 54 92 34 100 100 59 5 1 0 57 89 94 0 0 0 3 3 0 0 0 0 0 0 0 2 18 100 63 54 100 77 87 90 41
0 9 100 99 8 9 88 95 7 22 5 30 7 58 95 34 5 0 4 46 95 0 0 0 0 3 0 0 0 0 0 0 0 0 4 94 100 74 99 82 44 100 84 96
0 0 1 13 100 73 23 5 0 3 53 5 5 46 47 5 1 0 6 86 0 0 0 0 0 0 0 0 0 0 0 0 0 0 4 100 100 42 47 98 70 37 85 100
5 0 0 0 0 0 0 4 29 2 0 0 5 3 2 5 0 5 5 1 3 0 0 0 0 2 5 0 0 0 0 0 0 0 20 100 89 76 52 74 87 93 100 100
0 0 0 0 0 1 0 0 0 0 0 0 1 0 5 3 0 1 4 5 4 0 0 0 0 1 0 0 0 0 0 0 0 1 25 45 100 100 100 88 98 44 100 100
0 0 0 5 0 0 0 0 0 0 0 0 0 1 0 0 1 5 5 5 4 0 0 0 0 0 4 0 0 0 0 0 0 0 77 61 100 96 100 100 48 85 100 100
0 2 4 17 8 1 0 0 0 0 0 0 0 4 4 0 5 5 5 5 5 0 0 0 0 0 0 8 1 0 0 0 0 0 55 78 18 100 100 100 100 48 96 100
0 0 4 5 1 4 1 0 0 0 0 0 0 2 0 7 5 5 4 99 1 0 5 0 0 0 0 1 4 0 0 0 0 0 1 83 36 69 100 100 100 100 67 99
0 6 0 12 21 1 0 0 2 0 3 0 0 0 0 78 4 27 85 10 3 0 5 0 0 0 0 0 0 0 0 0 0 0 0 3 97 86 45 78 100 100 100 89
4 2 0 5 0 0 5 0 5 2 2 0 0 0 4 78 5 82 21 74 5 4 4 0 0 0 0 0 0 0 8 0 0 0 0 0 5 5 100 100 92 27 80 100
89 4 0 0 0 0 1 4 33 17 0 0 5 0 5 98 56 76 27 97 100 13 4 0 0 0 0 0 0 0 0 1 0 0 0 0 0 40 5 5 15 5 35 73
100 98 0 2 0 0 2 17 39 4 72 5 37 3 0 73 89 24 79 92 27 35 5 0 0 0 0 0 0 0 0 0 0 0 0 0 0 0 0 37 6 0 19 47
100 91 8 48 3 5 5 94 96 70 97 4 21 7 0 4 5 5 8 24 69 68 39 4 5 0 0 0 0 0 0 0 3 0 0 0 0 0 0 0 0 0 8 4
100 100 100 95 93 4 92 100 79 36 4 4 36 9 0 0 5 5 5 58 79 6 89 10 5 5 0 0 0 0 0 0 0 0 0 0 0 0 0 0 0 0 0 0
100 100 100 83 99 100 80 99 4 0 5 0 5 5 5 0 0 5 5 54 100 68 7 92 5 5 1 0 0 0 0 0 0 0 0 0 0 0 0 0 0 0 0 0
100 100 100 100 91 95 71 99 11 5 5 5 4 4 0 0 0 5 9 6 70 88 19 86 44 5 5 0 0 0 0 0 0 0 0 0 0 0 0 0 0 0 0 0
100 100 100 100 98 46 30 97 100 5 4 94 5 23 5 1 4 4 5 5 4 5 23 53 100 5 5 0 0 0 0 0 0 0 0 0 2 0 0 0 0 6 0 0

GFSCGP_prec_cloud_030.txt.gz
Cloud_Cover
46 47 14 100 100 98 10 2 5 54 93 8 33 5 5 5 0 5 0 0 5 1 55 5 0 2 100 100 74 23 0 2 2 5 5 1 0 0 2 2 6 5 5 100
65 2 26 0 24 87 68 76 84 100 32 35 5 4 5 0 0 4 2 5 3 2 59 5 5 5 100 97 54 1 0 0 0 5 5 0 0 1 7 2 2 10 62 74
3 28 100 83 6 30 14 42 100 100 57 3 2 0 2 5 4 5 46 5 0 60 18 5 0 4 57 6 3 0 0 0 0 0 0 0 0 0 0 5 56 40 100 85
3 5 4 12 8 70 8 90 100 99 20 4 3 0 0 3 96 5 6 4 24 100 5 0 0 0 0 0 0 0 0 0 0 0 0 0 0 1 5 5 99 100 100 77
53 52 6 5 90 5 23 100 100 99 5 3 1 10 100 2 34 5 31 10 90 97 2 2 67 0 0 0 0 0 0 0 0 0 0 0 0 5 5 31 100 100 98 93
98 15 30 25 100 100 100 100 93 16 0 0 26 50 100 1 2 50 7 68 97 11 5 24 0 0 0 0 0 0 0 0 0 0 0 0 1 0 25 100 100 90 37 79
95 100 54 48 92 96 78 25 3 1 0 9 98 82 99 5 100 100 24 5 77 58 5 5 0 0 0 0 0 0 0 0 0 0 0 1 0 6 98 100 100 100 83 46
100 100 100 100 80 62 100 100 99 76 60 98 100 100 8 1 73 72 0 87 100 20 5 0 0 0 0 0 0 0 0 0 0 0 0 4 64 46 95 94 100 98 56 36
2 100 100 100 100 100 99 38 67 100 100 100 100 100 0 61 100 34 41 100 68 5 5 0 0 0 0 0 0 0 0 0 0 0 0 53 6 6 5 81 100 63 15 25
0 17 100 100 100 100 15 42 42 5 78 100 100 79 22 100 100 100 98 100 73 5 5 4 0 0 0 0 0 0 0 0 0 0 12 89 5 5 100 100 71 18 5 32
0 0 71 100 100 100 100 5 3 3 8 12 47 90 100 100 100 92 67 98 99 81 5 0 0 0 0 0 0 0 0 0 0 0 5 82 5 5 97 100 6 8 11 52
0 0 3 100 100 100 100 19 4 32 100 100 100 100 100 100 100 46 90 100 100 76 5 0 0 0 0 0 0 0 0 0 0 3 5 10 5 5 100 100 9 5 15 9
75 1 0 4 49 5 0 92 63 5 0 9 68 98 8 100 100 81 100 100 99 5 0 0 0 0 0 0 0 0 0 0 0 5 87 36 5 92 100 96 73 6 5 97
100 10 0 0 8 31 5 5 5 4 20 100 100 76 99 100 100 100 100 100 19 5 0 0 0 0 0 0 0 0 0 0 0 5 9 5 77 41 99 100 14 5 69 64
99 17 1 0 0 0 0 0 0 0 100 100 100 88 100 100 100 100 99 89 5 5 5 0 0 0 0 0 0 0 0 0 0 4 8 39 82 90 5 38 5 5 99 94
100 42 5 0 0 0 0 0 0 0 94 100 81 70 100 100 100 72 5 56 5 5 5 5 0 0 0 0 0 0 0 0 0 1 5 4 9 100 98 31 6 18 5 57
100 80 22 0 0 0 0 0 0 0 0 92 47 86 73 5 27 0 22 68 63 5 5 5 0 0 0 0 0 3 0 0 0 0 1 6 0 38 79 98 95 100 26 78
100 100 74 4 0 0 3 0 0 0 1 5 0 1 5 6 1 3 64 62 47 43 5 5 0 0 0 0 0 0 0 0 0 0 0 19 2 1 23 8 85 100 96 54
100 100 100 82 1 0 0 0 0 0 18 97 9 4 6 4 0 2 67 50 6 46 15 5 1 0 0 0 0 0 0 0 0 0 0 0 4 5 5 16 35 5 67 100
100 100 99 73 73 0 0 0 0 1 4 0 0 0 5 0 8 8 5 14 5 29 38 5 5 0 0 0 0 0 0 0 0 0 0 0 0 0 0 5 12 60 50 100
100 100 99 94 35 0 0 0 0 0 2 0 0 4 5 2 93 24 2 19 39 89 5 5 5 0 0 0 0 0 0 0 0 0 0 0 0 0 0 3 4 5 4 11
100 100 100 100 68 4 2 0 11 8 2 0 0 9 5 37 93 6 4 5 36 100 6 5 2 4 1 0 0 0 0 0 0 0 0 0 0 0 0 0 0 1 1 55
100 100 100 100 88 98 16 84 16 0 5 0 0 1 5 90 100 1 92 2 5 76 79 48 5 5 4 0 0 0 0 0 0 0 0 0 0 0 0 0 0 0 0 0
100 100 99 100 100 100 72 100 55 27 5 0 0 0 5 35 100 99 5 4 0 5 88 57 6 4 5 0 0 0 0 0 0 0 0 0 0 0 0 0 0 0 0 0
100 100 100 98 100 100 100 100 100 16 4 1 0 5 5 86 29 100 69 3 0 6 17 20 47 5 5 1 0 0 0 0 0 0 0 0 0 0 0 0 0 0 0 0
100 100 100 100 100 100 100 100 73 0 0 5 0 2 92 12 39 32 5 16 6 0 18 96 61 13 5 5 0 0 0 0 0 0 0 0 0 0 2 0 0 11 16 5

GFSCGP_prec_cloud_033.txt.gz
Cloud_Cover
33 90 0 1 20 2 0 2 72 100 100 5 5 66 28 79 43 5 67 0 0 0 0 0 0 0 0 0 5 61 48 50 24 0 0 4 0 0 0 0 11 0 20 30
72 5 7 29 1 0 0 0 40 90 7 26 4 10 29 2 24 66 1 0 4 0 0 0 0 5 0 3 38 54 5 5 0 0 0 0 0 0 0 0 6 13 39 47
0 0 100 92 5 4 3 4 4 4 100 96 13 3 4 74 2 2 0 4 0 0 1 4 0 0 0 0 0 0 1 0 0 0 0 0 0 0 0 2 5 16 65 31
0 0 2 4 0 2 0 3 13 75 100 5 95 1 0 46 0 0 1 0 0 0 5 0 0 0 4 0 0 0 0 0 0 0 0 0 0 0 2 3 89 100 91 7
0 0 0 5 88 99 19 100 84 100 100 81 5 4 10 0 0 70 1 2 0 5 5 0 0 2 4 0 0 0 0 0 0 0 0 0 0 0 0 24 100 95 84 100
0 0 1 16 74 98 98 95 94 92 78 75 3 0 93 3 0 4 0 0 37 99 1 0 0 5 0 0 0 0 0 0 0 0 0 0 0 4 84 31 51 55 100 100
0 0 0 1 5 15 5 74 86 48 30 5 2 0 100 3 4 40 4 23 90 40 5 0 1 0 0 0 0 0 0 0 0 0 0 3 5 9 0 20 93 100 95 100
0 0 0 1 4 94 79 41 14 5 5 3 50 23 100 16 0 0 32 14 6 42 4 0 0 0 0 0 0 0 0 0 0 0 0 4 5 16 76 100 66 95 98 99
0 0 0 3 100 97 62 1 10 5 0 1 96 100 98 8 82 12 4 0 62 5 5 5 5 0 0 0 0 0 0 0 0 0 34 5 4 86 100 96 71 71 73 78
0 0 0 0 91 28 5 88 9 0 1 22 100 100 73 18 100 6 0 8 100 8 5 5 1 0 0 0 0 0 0 0 0 0 4 4 2 78 100 78 46 62 68 57
2 0 0 0 0 4 5 0 0 0 5 22 100 100 100 98 100 5 6 100 100 49 5 5 3 0 0 0 0 0 0 0 0 0 5 2 5 52 34 36 44 50 56 38
2 3 0 0 1 100 100 9 4 5 98 100 100 100 100 74 100 85 100 100 100 98 5 5 0 0 0 0 0 0 0 0 0 1 4 5 5 74 7 95 39 99 92 30
100 8 0 0 0 91 18 1 0 2 2 80 100 100 9 67 100 31 12 100 100 95 5 2 0 0 0 0 0 0 0 0 0 4 3 4 43 96 71 39 68 51 55 100
100 96 0 0 0 13 100 30 4 5 5 89 100 100 34 93 100 54 100 100 100 100 5 0 0 0 0 0 0 0 0 0 0 0 0 7 2 20 5 50 100 68 100 100
100 90 5 0 0 0 0 15 17 30 100 94 100 100 17 100 100 26 100 100 100 98 5 0 0 0 0 0 0 0 0 0 0 1 46 67 81 5 5 5 51 95 75 100
99 100 57 0 0 0 0 0 5 17 37 100 100 100 96 100 100 8 100 100 100 20 2 2 0 0 0 0 0 0 0 0 0 1 5 53 42 79 5 99 40 100 60 100
100 99 96 4 0 0 0 0 5 90 100 100 100 76 100 100 100 100 95 82 26 5 5 2 0 0 0 0 0 0 0 0 0 0 3 0 4 46 99 100 100 21 46 100
100 98 100 67 2 1 0 0 2 95 100 100 64 10 100 100 94 5 7 60 5 5 5 2 2 0 0 0 0 0 0 0 0 0 1 5 2 9 12 66 100 100 55 100
100 99 100 90 5 0 0 0 0 3 50 86 0 0 8 15 0 0 5 8 5 5 5 4 2 0 0 0 0 0 0 0 0 0 0 0 4 5 1 5 5 19 87 74
100 100 90 65 6 3 34 0 0 3 12 3 0 0 0 0 4 4 10 6 47 5 5 5 0 0 5 0 0 0 0 0 0 0 0 0 0 0 0 0 5 34 98 90
100 100 90 86 76 8 28 0 0 0 2 0 0 0 5 33 4 0 7 6 5 7 5 5 0 2 4 0 0 0 0 0 0 0 0 0 0 0 0 0 0 4 7 69
100 100 99 97 82 87 24 3 1 9 0 0 0 2 5 21 2 0 5 54 93 28 9 5 5 5 5 0 0 0 0 0 0 0 0 0 0 0 0 0 0 1 2 4
100 91 100 63 77 100 92 60 7 1 0 0 0 1 81 9 0 0 0 23 100 98 83 5 5 5 5 0 0 0 0 0 0 0 0 0 0 0 0 0 0 0 0 4
100 100 98 100 100 100 100 100 77 42 30 2 0 0 100 71 0 0 5 5 24 100 99 11 5 7 5 5 0 0 0 0 0 0 0 0 0 0 0 0 0 0 0 0
100 100 100 100 100 100 100 100 100 100 100 17 2 4 100 95 5 0 2 5 5 4 99 49 2 30 9 5 2 0 0 0 0 0 0 0 0 0 0 0 0 0 0 0
100 100 100 100 100 100 100 100 100 100 75 3 1 5 50 100 34 5 0 4 2 0 20 100 40 5 15 5 5 4 0 0 0 0 0 0 0 0 0 0 0 74 56 0